JCSAT-18 (KACIFIC 1) (44868 NORAD) Tracking and Keplerian Element Data

This shows tracking and keplerian element data for the satellite.

Feedback or suggestion? Click here.




ElementValue
Catalog44868
NameJCSAT-18 (KACIFIC 1)
Epoch Orbit64
Epoch Day21.85331253
Epoch Year2020
RAAN246.0025
Inclination0.0379
Eccentricity0.0001998
Argument of Perigee58.3933
Mean Anonmoly273.4761
Mean Motion1.00268575
Decay Rate-2.09E-06
L11 44868U 19091A 20021.85331253 -.00000209 00000-0 00000-0 0 9997
L22 44868 0.0379 246.0025 0001998 58.3933 273.4761 1.00268575 642

Live tracking and technical data element details for JCSAT-18 (KACIFIC 1) (NORAD 44868). JCSAT-18 (KACIFIC 1) can be tracked NOW for your location showing map with azimuth and elevation plus other details from your city location.

Track the satellite on the map from your city or location and see movement details for azimuth, elevation, latitude, longitude, range, height, and movement on the map or in text.







IsCatalogInMostPopularTable: catalog: 44868, numindb: 7
Update: records affected: 1



GetName: 44868 JCSAT-18 (KACIFIC 1)

Hit Count: updated at: Fri, 24 Jan 2020 10:25:44 GMT